Location: Clarion
(42.7316°N, 93.7330°W)
Time: 22:22:27
(UTC+00:00)

ADEOS II - Pass Details

Date: 22 April 2026
Orbit: 793 x 795 km, 98.8° (Epoch: 12 May)

Event Time Altitude Azimuth Distance (km) Brightness Sun altitude
Rises 10:29:30 0° 2° (N) 3,305 5.7 -9.8°
Reaches altitude 10° 10:32:12 10° 349° (N) 2,371 4.7 -9.4°
Maximum altitude 10:36:20 25° 296° (WNW) 1,577 3.3 -8.7°
Drops below altitude 10° 10:40:29 10° 244° (WSW) 2,357 3.8 -8.0°
Enters shadow 10:40:34 10° 243° (WSW) 2,384 3.9 -8.0°
